Rifle, CO

8:09 AM MDT on May 24, 2017 (GMT -0600)
Garfield County Regional

Weather History for KRIL - October, 2011

Change the Weather History Date:

Monday, October 17, 2011

  Actual Average Record
Temperature  
Mean Temperature 50 °F 49 °F  
Max Temperature 64 °F 64 °F 81 °F (1991)
Min Temperature 37 °F 33 °F 17 °F (1999)
Degree Days  
Heating Degree Days 16 16  
Month to date heating degree days 224  
Since 1 July heating degree days 370  
Cooling Degree Days 0 0  
Month to date cooling degree days 0  
Year to date cooling degree days 541  
Moisture  
Dew Point 32 °F    
Average Humidity 48    
Maximum Humidity 73    
Minimum Humidity 30    
Precipitation  
Precipitation 0.00 in 0.07 in 0.67 in (1971)
Month to date precipitation 1.01  
Year to date precipitation 11.48  
Sea Level Pressure  
Sea Level Pressure 30.11 in    
Wind  
Wind Speed 8 mph (WNW)    
Max Wind Speed 31 mph    
Max Gust Speed 43 mph    
Visibility 10 miles    
Events Rain , Thunderstorm    
T = Trace of Precipitation, MM = Missing Value Source: NWS Daily Summary

Daily Weather History Graph

Daily Weather History Graph

Search for Another Location

Airport or City:

Trip Planner

Search our weather history database for the weather conditions in past years. The results will help you decide how hot, cold, wet, or windy it might be!

Date:

Astronomy

Oct. 17, 2011 Rise Set
Actual Time 7:22 AM MDT 6:29 PM MDT
Civil Twilight 6:55 AM MDT 6:56 PM MDT
Nautical Twilight 6:24 AM MDT 7:27 PM MDT
Astronomical Twilight 5:53 AM MDT 7:58 PM MDT
Moon 10:13 PM MDT (10/17) 12:30 PM MDT (10/17)
Length of Visible Light 12h 00m
Length of Day
11h 06m
Waning Gibbous, 73% of the Moon is Illuminated
Oct 17
Waning Gibbous
Oct 19
Last Quarter
Oct 26
New
Nov 2
First Quarter
Nov 10
Full

Hourly Weather History & Observations

Time (MDT) Temp. Windchill Dew Point Humidity Pressure Visibility Wind Dir Wind Speed Gust Speed Precip Events Conditions
12:53 AM 60.1 °F - 30.0 °F 32% 29.83 in 10.0 mi Calm Calm - N/A   Scattered Clouds
2:53 AM 57.9 °F - 30.0 °F 35% 29.79 in 10.0 mi WNW 4.6 mph - N/A   Mostly Cloudy
3:07 AM 57.2 °F - 30.2 °F 36% 29.98 in 10.0 mi WNW 5.8 mph - N/A Thunderstorm Mostly Cloudy
3:21 AM 57.2 °F - 30.2 °F 36% 29.98 in 10.0 mi Variable 3.5 mph - N/A   Overcast
4:53 AM 60.1 °F - 33.1 °F 36% 29.83 in 10.0 mi NW 31.1 mph 42.6 mph N/A   Mostly Cloudy
5:53 AM 51.1 °F - 39.0 °F 63% 29.94 in 10.0 mi WNW 12.7 mph 24.2 mph 0.00 in   Overcast
6:53 AM 51.1 °F - 39.0 °F 63% 29.99 in 10.0 mi WNW 18.4 mph 24.2 mph 0.00 in Rain Light Rain
8:53 AM 52.0 °F - 37.9 °F 59% 30.08 in 10.0 mi NW 10.4 mph - N/A   Clear
9:53 AM 51.1 °F - 37.0 °F 59% 30.13 in 10.0 mi NW 16.1 mph - 0.00 in Rain Light Rain
10:53 AM 51.1 °F - 39.9 °F 66% 30.17 in 10.0 mi WSW 12.7 mph - N/A   Scattered Clouds
11:53 AM 54.0 °F - 35.1 °F 49% 30.17 in 10.0 mi WNW 20.7 mph 26.5 mph N/A   Clear
1:53 PM 57.0 °F - 28.9 °F 34% 30.15 in 10.0 mi WNW 15.0 mph 25.3 mph N/A   Partly Cloudy
2:53 PM 60.1 °F - 28.0 °F 30% 30.14 in 10.0 mi West 13.8 mph 19.6 mph N/A   Overcast
3:53 PM 60.1 °F - 28.9 °F 31% 30.14 in 10.0 mi WNW 10.4 mph - N/A   Overcast
4:53 PM 57.9 °F - 28.0 °F 32% 30.15 in 10.0 mi NW 9.2 mph - N/A   Partly Cloudy
5:53 PM 55.0 °F - 28.0 °F 35% 30.20 in 10.0 mi NNW 4.6 mph - N/A   Clear
6:53 PM 51.1 °F - 28.0 °F 41% 30.23 in 10.0 mi Calm Calm - N/A   Clear
7:53 PM 46.0 °F 44.8 °F 28.9 °F 51% 30.26 in 10.0 mi South 3.5 mph - N/A   Clear
8:53 PM 42.1 °F - 28.9 °F 60% 30.27 in 10.0 mi Calm Calm - N/A   Clear
9:53 PM 41.0 °F 39.0 °F 28.9 °F 62% 30.30 in 10.0 mi ENE 3.5 mph - N/A   Clear
10:53 PM 39.9 °F 35.1 °F 28.0 °F 63% 30.30 in 10.0 mi SE 6.9 mph - N/A   Clear
11:53 PM 37.0 °F 31.6 °F 28.9 °F 73% 30.28 in 10.0 mi ENE 6.9 mph - N/A   Clear